Weather in Tashla

Russia / Samara Oblast     53°42′19″N   49°45′14″E
temp.,
°C
wind,
m/s
gust,
m/s
humid.,
%
clouds,
%
prec.,
mm/h
press.,
hPa
HPBL,
m
3 march, wed
wed301:00−2w3496100 0.1 100298
04:00−3w3697100 0.3 1002193
07:00−7w349791 0.1 100275
10:00−5wnw5109589 0.4 1003461
13:00−4wnw799098 0.1 1004805
16:00−5wnw7108999 0.2 1005801
19:00−6wnw51295100 0.1 1006560
22:00−6wnw61093100 0.3 1008662
4 march, thu
thu401:00−9w499599 0.1 1008286
04:00−11sw5109691 0.1 1007153
07:00−9sw6129590 0.1 1005346
10:00−5sw8139595 0.6 1004633
13:00−1wsw91388100 0.4 1002891
16:00−1wsw101696100 1.1 10001032
19:000wsw91592100 0.3 999962
22:000wsw71495100 0.4 1001712
5 march, fri
fri501:00−1wsw71397100 1.6 1001641
04:00−1sw71295100 2.4 1000552
07:00−2sw71297100 1.3 999527
10:000sw71299100 2.7 999559
13:00+1wsw712100100 2.2 998550
16:00−3nnw71093100 2.6 1002644
19:00−8nw499497 0.1 1007203
22:00−12nw349473 0.1 101075
6 march, sat
sat601:00−14nnw239366 0.0 101220
04:00−14n129383 0.0 101320
07:00−14ene1294100 0.0 101321
10:00−12ne2394100 0.0 1013127
13:00−10nne3391100 0.0 1012213
16:00−10n239294 0.0 1011171
19:00−15wnw229547 0.0 101120
22:00−15wsw228832 0.0 101220
7 march, sun
sun701:00−13wsw349659 0.1 101286
04:00−13nw489678 0.3 1014252
07:00−19wnw349962 0.0 101436
10:00−16wsw349234 0.0 1015134
13:00−11ssw58840 0.0 1014324
16:00−10ssw6118117 0.0 1012517
19:00−11ssw81490100 0.0 1010526
22:00−7ssw91790100 0.1 1007824